SCP
0 0 0 0 0 0 0 0 0 0 0 0 0 1 1 1 1 1 1 1 1 2 2 2 2 2 2 2 2 2 2 2 2 2 2 2 2 2 2 2 2 2 2 2
0 0 0 0 0 0 0 0 0 0 0 0 0 1 1 1 1 1 1 1 2 2 2 2 2 2 2 2 2 2 2 2 2 2 2 2 2 2 2 2 2 2 2 2
0 0 0 0 0 0 0 0 0 0 0 0 1 1 1 1 1 1 1 2 2 2 2 2 2 2 2 2 2 2 2 2 2 2 2 2 1 2 2 2 2 2 2 2
0 0 0 0 0 0 0 0 0 0 0 1 1 1 1 1 1 1 1 2 2 2 2 2 2 2 2 2 2 2 2 2 2 2 2 2 1 2 2 2 2 2 2 2
0 0 0 0 0 0 0 0 0 0 0 1 1 1 1 1 1 1 2 2 2 2 2 2 2 2 2 2 2 2 2 2 2 2 2 2 2 2 2 2 2 2 2 2
0 0 0 0 0 0 0 0 0 1 1 1 1 1 1 1 1 2 2 2 2 1 2 2 2 2 2 2 2 2 2 2 2 2 2 2 2 2 2 2 2 2 2 2
0 0 0 0 0 0 0 1 1 1 1 1 1 1 1 1 2 2 2 2 2 2 2 2 3 3 2 2 2 2 2 2 2 2 2 2 2 2 2 2 2 2 2 2
0 0 0 0 0 0 1 1 1 1 1 1 1 1 1 2 2 2 2 1 1 2 2 3 3 3 2 2 2 2 2 2 2 2 2 2 2 2 2 2 2 2 2 2
0 0 0 1 1 1 1 1 1 1 1 1 1 1 1 2 2 2 1 1 1 2 2 2 3 3 2 2 2 2 2 2 2 2 2 2 2 2 2 2 2 2 2 2
1 1 1 1 1 1 1 0 0 0 1 1 1 1 1 2 2 2 1 1 1 2 2 2 3 3 3 2 2 2 2 2 2 2 2 2 2 2 2 2 2 1 1 1
1 1 1 1 1 0 0 0 0 0 0 0 1 1 1 2 2 2 1 1 1 2 2 2 3 3 3 3 2 2 2 2 2 2 2 2 2 2 1 1 1 1 1 1
1 1 1 1 0 0 0 0 0 0 0 0 0 1 1 2 2 2 2 1 1 2 2 2 3 3 3 3 3 2 2 2 2 2 2 2 2 2 1 1 1 1 1 1
0 0 0 0 0 0 0 0 0 0 0 0 0 1 1 1 2 2 2 2 2 2 2 2 2 2 3 3 3 3 2 2 2 2 2 2 2 2 1 1 1 0 0 0
0 0 0 0 0 0 0 0 0 0 0 0 0 1 1 1 1 1 1 1 1 2 2 2 2 2 2 3 3 3 2 2 2 2 2 2 2 2 2 1 1 1 0 0
0 0 0 0 0 0 0 0 0 0 0 0 0 1 1 1 1 1 1 1 1 1 1 2 2 2 2 2 2 2 2 2 1 1 1 1 1 1 1 2 1 1 1 0
0 0 0 0 0 0 0 0 0 0 0 0 0 1 1 1 1 1 1 1 1 1 1 2 2 2 2 2 2 2 1 1 1 1 1 1 1 1 1 2 2 2 1 1
0 0 0 0 0 0 0 0 0 0 0 0 0 1 1 1 1 1 1 1 1 1 1 1 2 2 2 2 1 1 1 1 1 1 1 1 1 1 1 2 2 2 1 1
0 0 0 0 0 0 0 0 0 0 0 0 0 1 1 1 1 1 1 1 1 1 1 1 1 1 1 1 1 1 1 1 1 1 1 1 1 1 1 1 1 1 1 1
0 0 0 0 0 0 0 0 0 0 0 0 0 0 1 1 1 1 1 1 1 1 1 1 1 1 1 1 1 1 1 1 1 1 1 1 1 1 1 1 1 1 1 1
0 0 0 0 0 0 0 0 0 0 0 0 0 0 0 0 0 1 1 1 1 1 1 1 1 1 1 1 1 1 1 1 1 1 1 1 1 1 1 1 1 0 1 1
0 0 0 0 0 0 0 0 0 0 0 0 0 0 0 0 0 0 0 0 1 1 1 1 1 0 0 0 0 0 0 0 0 1 1 1 1 1 1 1 0 0 0 1
0 0 0 0 0 0 0 0 0 0 0 0 0 0 0 0 0 0 0 0 0 0 0 0 0 0 0 0 0 0 0 0 0 0 0 0 1 0 0 0 0 0 0 1
0 0 0 0 0 0 0 0 0 0 0 0 0 0 0 0 0 0 0 0 0 0 0 0 0 0 0 0 0 0 0 0 0 0 0 0 0 0 0 0 0 0 1 1
0 0 0 0 0 0 0 0 0 0 0 0 0 0 0 0 0 0 0 0 0 0 0 0 0 0 0 0 0 0 0 0 0 0 0 0 0 0 0 0 1 1 1 1
0 0 0 0 0 0 0 0 0 0 0 0 0 0 0 0 0 0 0 0 0 0 0 0 0 0 0 0 0 0 0 0 0 0 0 0 0 0 0 0 0 0 0 0
0 0 0 0 0 0 0 0 0 0 0 0 0 0 0 0 0 0 0 0 0 0 0 0 0 0 0 0 0 0 0 0 0 0 0 0 0 0 0 0 0 0 0 0
0 0 0 0 0 0 0 0 0 0 0 0 0 0 0 0 0 0 0 0 0 0 0 0 0 0 0 0 0 0 0 0 0 0 0 0 0 0 0 0 0 0 0 0
Wind_Speed
16 15 14 13 13 14 14 13 11 9 7 5 3 6 5 5 6 7 8 7 8 7 6 5 5 4 3 3 3 3 4 4 4 3 3 3 3 3 3 3 3 2 2 2
16 16 15 14 15 15 15 13 11 10 8 5 4 4 3 4 4 5 6 7 7 6 6 5 5 4 3 3 3 4 4 3 3 4 3 3 3 3 3 3 2 2 2 2
13 14 15 16 13 14 13 12 11 10 6 3 4 5 5 3 3 5 5 5 5 6 6 5 5 4 3 3 2 3 3 3 3 3 4 4 4 3 4 4 3 2 2 2
11 13 18 12 9 11 11 9 7 5 2 2 2 3 4 4 3 2 3 5 5 5 5 5 4 4 3 3 3 3 3 3 3 3 3 3 2 2 2 2 2 2 2 3
10 14 14 12 9 10 10 8 4 3 4 1 0 2 4 3 3 2 3 3 4 5 5 5 4 4 3 3 4 4 3 3 3 3 3 3 3 3 3 3 3 3 3 3
11 14 13 8 5 7 8 6 3 3 2 1 2 3 2 3 4 4 3 2 2 4 5 5 4 4 3 3 3 3 3 2 2 3 3 3 3 3 2 3 3 3 3 4
14 14 10 5 4 6 7 1 4 3 2 2 3 3 4 4 4 4 3 3 2 2 3 3 4 4 3 3 2 2 1 2 2 3 3 3 3 2 3 3 3 3 3 4
11 13 9 4 3 2 3 4 5 5 4 4 4 3 4 5 4 4 3 2 1 1 2 2 3 3 3 2 2 2 2 2 2 3 4 4 3 3 3 4 4 4 4 4
5 4 2 4 4 5 4 4 4 4 4 4 2 3 3 3 3 3 2 2 1 0 1 2 3 3 3 2 1 2 2 3 3 4 3 3 4 4 4 4 4 4 4 4
3 3 1 3 3 4 4 4 4 4 5 5 3 2 2 1 1 1 1 1 1 1 1 1 2 2 2 2 1 2 3 3 3 4 4 4 3 4 4 4 4 4 4 4
5 3 2 2 2 2 3 4 5 4 4 4 4 2 1 1 1 0 1 1 1 1 1 1 0 1 1 2 2 2 3 3 4 5 5 4 4 3 3 3 3 3 3 2
4 3 2 2 3 4 4 4 5 6 6 4 4 4 2 1 1 1 1 0 0 1 2 1 1 1 1 2 2 2 3 3 4 4 4 4 4 4 1 2 2 2 1 1
4 4 3 3 5 5 4 5 6 6 5 4 5 4 2 1 1 1 1 1 1 1 1 1 1 2 2 2 3 3 4 4 4 4 4 4 4 4 3 2 2 2 2 2
5 4 4 5 5 5 6 6 6 6 5 4 5 3 1 1 2 2 2 2 2 1 1 2 2 2 2 2 2 3 4 4 4 4 3 4 4 4 4 3 3 3 3 4
6 5 5 5 5 5 6 6 6 6 5 5 5 3 2 3 3 3 2 2 2 2 2 2 3 2 2 2 3 4 4 4 4 4 4 4 4 4 4 3 3 3 3 3
6 6 6 5 4 5 6 6 6 6 6 6 4 4 4 4 3 3 3 3 2 3 2 2 3 2 2 3 3 4 4 5 4 4 4 4 3 4 3 2 2 3 3 3
6 6 6 5 5 5 6 6 6 6 6 7 6 5 4 4 3 2 3 3 3 3 2 3 3 2 3 3 4 4 4 4 5 5 5 4 3 3 3 2 3 2 2 3
7 6 5 4 5 5 5 6 6 6 5 6 7 5 3 3 3 3 3 3 3 3 3 3 2 3 3 3 4 4 4 4 3 3 3 2 2 3 3 3 3 3 2 2
5 5 4 4 4 5 5 6 5 5 5 5 5 4 3 3 3 2 2 3 3 4 3 3 3 4 4 3 3 3 4 4 3 3 2 2 3 3 3 3 3 3 3 2
3 4 4 5 5 5 5 5 5 5 5 5 5 4 3 3 3 2 2 3 3 3 2 2 2 4 4 2 3 4 3 3 3 3 2 3 3 3 3 3 4 4 3 2
4 4 4 5 5 4 4 4 4 4 5 5 5 5 3 2 2 2 3 3 2 2 3 3 3 3 3 3 4 4 3 3 3 3 3 3 3 3 3 3 3 3 2 2
3 3 3 4 4 4 3 3 3 5 5 4 5 4 3 3 3 3 3 3 2 1 2 3 2 3 3 4 4 4 4 4 3 3 3 2 2 2 2 3 3 3 2 2
2 2 3 3 3 4 4 3 4 4 4 4 4 4 4 3 3 3 3 2 2 2 2 2 2 2 3 4 3 3 3 3 2 2 2 2 2 1 1 2 2 3 2 2
2 2 2 3 3 3 3 4 4 4 4 3 3 3 4 4 3 3 2 1 1 1 2 1 1 2 3 3 3 2 2 2 2 2 2 2 2 1 1 1 3 3 3 2
1 2 2 2 2 2 2 2 3 3 3 2 3 3 2 2 2 2 2 1 1 1 2 1 2 2 2 2 2 2 2 2 2 2 2 2 2 2 2 2 2 3 3 3
1 2 2 2 2 2 2 2 2 2 2 2 2 3 2 2 1 1 1 1 1 2 2 1 1 2 2 2 2 2 2 2 1 1 1 1 2 2 2 2 3 3 3 2
2 2 1 2 1 2 2 2 2 2 2 2 2 2 3 2 2 2 2 1 1 1 1 1 1 1 2 2 1 1 2 1 1 1 1 1 1 1 2 2 3 3 2 2
Wind_Direction
260 264 260 246 240 244 246 248 249 247 229 214 183 149 144 148 153 155 152 149 141 140 143 148 141 138 151 156 150 152 149 160 167 174 173 179 182 186 189 184 183 182 185 202
256 255 255 253 245 242 242 246 243 241 243 180 144 122 136 145 151 150 153 155 149 147 141 142 145 151 159 161 158 155 165 174 171 175 176 181 184 184 185 182 183 188 191 206
254 251 253 246 245 254 247 246 249 243 240 204 163 146 141 143 162 156 158 155 150 152 149 146 149 150 159 157 150 166 175 181 182 183 181 191 193 185 190 187 187 194 201 200
256 253 247 251 250 254 256 249 250 255 263 287 162 138 130 139 130 142 148 154 153 151 148 150 149 151 166 169 175 181 189 193 184 186 188 186 186 191 195 190 192 202 213 211
250 248 245 248 249 252 254 259 275 261 263 271 309 146 139 108 98 104 119 123 149 159 158 150 154 161 181 189 188 186 195 201 191 193 194 196 200 194 196 201 206 211 216 213
245 249 246 248 260 272 256 239 335 313 307 311 283 245 123 84 92 97 85 101 124 155 155 150 156 163 186 200 196 200 203 205 203 197 194 203 205 200 202 209 220 221 217 213
244 248 249 276 293 273 247 263 5 339 347 6 17 11 47 53 66 74 68 66 74 106 127 145 154 161 184 198 206 215 225 217 211 199 198 200 191 194 203 215 221 230 227 220
239 244 247 339 299 324 24 38 31 20 19 28 38 35 66 68 62 65 62 60 64 93 121 139 146 161 183 200 200 209 226 225 224 214 217 204 192 201 207 214 214 222 230 233
246 241 18 14 35 53 46 38 30 17 13 16 23 10 51 66 63 60 54 32 13 34 164 155 158 175 201 204 197 215 232 230 224 221 225 200 196 208 213 213 221 226 227 231
261 243 325 8 24 32 34 20 4 359 357 358 344 352 43 57 64 75 68 50 8 313 247 184 174 190 194 180 182 216 234 232 224 219 220 210 205 215 222 224 225 229 236 233
245 246 250 299 358 2 360 351 343 338 345 344 335 340 16 18 4 54 72 79 45 317 294 310 105 189 203 182 186 216 234 233 229 226 223 221 221 234 239 238 235 228 245 246
254 289 291 315 333 337 335 332 336 335 331 327 327 316 316 331 348 335 342 81 184 254 271 288 297 261 247 220 203 214 230 233 237 235 223 217 220 224 244 235 198 191 218 247
294 292 301 309 305 309 308 317 316 316 309 311 313 303 304 325 323 295 276 241 265 272 258 257 252 245 249 229 215 226 243 244 248 247 235 225 220 219 212 203 219 250 246 216
312 308 297 295 292 302 307 308 309 312 312 309 300 284 284 285 277 276 279 278 269 258 240 244 247 247 248 238 231 236 242 239 250 250 247 246 235 228 224 216 209 213 219 215
279 276 268 281 291 301 302 300 299 301 310 294 291 280 266 265 269 273 283 276 270 257 255 254 252 248 239 238 235 243 246 244 243 250 245 246 246 241 239 232 220 213 185 184
268 270 265 259 267 275 281 286 289 296 306 298 286 286 273 262 263 267 275 277 269 265 268 265 261 259 250 244 245 244 247 250 246 252 251 247 245 247 247 237 227 227 213 188
261 259 268 266 265 270 284 296 301 306 307 311 308 296 279 277 269 264 267 267 268 268 274 277 272 272 265 253 252 253 252 242 231 246 252 247 249 257 259 253 247 246 232 189
268 263 258 272 281 290 300 302 306 313 319 321 314 306 291 285 276 274 275 278 277 269 263 268 274 272 263 257 258 258 262 253 240 242 252 256 250 256 265 263 256 257 244 193
258 260 261 271 284 282 284 290 298 308 315 309 305 304 301 301 299 288 274 274 270 266 275 278 268 263 265 259 263 252 253 257 258 258 260 254 249 251 253 260 260 245 239 211
263 259 267 275 278 282 282 280 285 295 309 314 306 298 293 297 298 287 272 261 264 282 292 286 260 262 264 260 259 259 258 260 267 269 265 256 251 252 254 259 259 247 234 224
267 266 266 270 274 275 278 286 286 288 295 298 298 295 294 298 295 290 281 273 279 312 292 266 261 272 274 282 255 249 252 257 258 259 258 257 261 261 261 263 275 278 269 265
283 279 272 273 279 282 278 274 281 289 291 298 303 299 296 287 278 267 260 276 299 324 288 277 277 295 302 281 260 255 249 250 254 257 260 264 274 278 278 280 286 286 283 284
288 285 281 280 287 293 292 277 272 281 287 292 298 292 289 291 280 276 269 252 256 247 258 283 295 287 289 274 270 268 268 269 272 270 267 260 261 274 284 296 300 294 288 290
303 304 303 297 290 287 291 291 290 283 282 290 294 293 286 282 273 265 282 264 234 234 259 274 258 276 265 263 275 276 274 275 279 282 288 291 287 283 283 296 294 300 302 296
337 320 313 299 287 283 285 288 287 291 299 307 306 304 291 282 286 300 324 330 322 244 268 243 208 238 262 285 292 289 285 288 287 294 291 291 301 309 310 305 301 302 299 298
284 273 283 288 292 295 286 282 285 294 306 320 337 339 335 333 323 318 319 327 303 264 272 285 253 231 258 276 288 295 301 309 303 291 301 309 328 335 327 315 307 309 311 320
269 263 258 265 282 307 317 321 320 327 337 349 343 332 333 330 325 331 331 319 300 293 302 308 307 290 283 294 316 320 315 327 343 351 11 6 356 346 340 334 321 312 313 339